Zurück zum Katalog

CZ-6A DEB

AktivSSO
NORAD 62338·DEBRIS·🇨🇳 China

Gestartet Nov 11, 2022 von Taiyuan Satellite Launch Center

Loading…

Nächste Überflüge (nächste 24 Stunden)

TLE

AktuellSource: Space-Track

Epoche: Sep 14, 2026, 13:17 UTC

1 62338U 22151AJD 26257.55405876  .00002981  00000-0  99313-3 0  9993
2 62338  98.7371 293.8905 0028805  45.8378 314.5169 14.38127855181646

Verfolge CZ-6A DEB in Echtzeit mit AllMySat

Download on the App Store